GW7216 Weather Reports


Display with metric or nautical units.
time (UTC)temp
F
wind
direction
speed
MPH
gust
MPH
rain 1hr
in
rain 24hr
in
rain mn
in
humidity
%
barometer
mb
20260506184556 52 262 2.0 6.0 0.00 0.01 0.01 88 1007.7
20260506184503 52 263 2.0 6.0 0.00 0.02 0.02 88 1018.3
20260506184047 52 264 2.0 4.0 0.00 0.01 0.01 88 1007.7
20260506184003 52 266 2.0 6.0 0.00 0.02 0.02 88 1018.2
20260506183549 52 0 2.0 6.0 0.00 0.01 0.01 87 1007.6
20260506183503 52 266 2.0 6.0 0.00 0.02 0.02 88 1018.2
20260506183100 52 0 0.0 6.0 0.00 0.01 0.01 87 1007.6
20260506183003 52 265 2.0 8.0 0.00 0.02 0.02 88 1018.1
20260506182545 52 265 2.0 6.0 0.00 0.01 0.01 87 1007.6
20260506182503 52 263 2.0 8.0 0.00 0.02 0.02 88 1018.1
20260506182216 52 263 3.0 8.0 0.00 0.02 0.02 87 1018.0
20260506182047 52 263 2.0 8.0 0.00 0.01 0.01 87 1007.5
20260506181556 52 265 3.0 8.0 0.00 0.01 0.01 87 1007.4
20260506181503 52 265 3.0 8.0 0.00 0.02 0.02 87 1017.9
20260506181046 52 275 3.0 8.0 0.00 0.01 0.01 86 1007.2
20260506181003 52 265 3.0 10.0 0.00 0.02 0.02 87 1017.9
20260506180550 52 267 2.0 10.0 0.00 0.01 0.01 86 1007.2
20260506180503 52 267 3.0 10.0 0.00 0.02 0.02 87 1017.8
20260506180218 52 266 3.0 10.0 0.00 0.02 0.02 87 1017.9
20260506180054 52 269 2.0 10.0 0.00 0.01 0.01 86 1007.3
20260506175547 52 256 3.0 10.0 0.00 0.01 0.01 86 1007.3
20260506175503 53 263 3.0 10.0 0.00 0.02 0.02 87 1017.8
20260506175049 52 263 2.0 6.0 0.00 0.01 0.01 86 1007.1
20260506175003 53 267 2.0 7.0 0.00 0.02 0.02 87 1017.7
20260506174551 52 265 2.0 7.0 0.00 0.01 0.01 86 1007.2
20260506174503 53 270 2.0 7.0 0.00 0.02 0.02 87 1017.6
20260506174047 52 272 1.0 7.0 0.00 0.01 0.01 86 1007.0
20260506174003 53 270 2.0 7.0 0.00 0.02 0.02 87 1017.6
20260506173717 53 270 2.0 7.0 0.00 0.02 0.02 86 1017.5
20260506173547 52 271 1.0 4.0 0.00 0.01 0.01 86 1007.0
20260506173058 53 269 1.0 6.0 0.00 0.01 0.01 86 1007.0
20260506173003 53 270 2.0 6.0 0.00 0.02 0.02 86 1017.5
20260506172546 53 0 2.0 6.0 0.00 0.01 0.01 86 1006.9
20260506172503 53 271 2.0 6.0 0.00 0.02 0.02 86 1017.4
20260506172048 53 272 1.0 3.0 0.00 0.01 0.01 86 1006.9
20260506172003 53 271 1.0 3.0 0.00 0.02 0.02 86 1017.4
20260506171554 53 0 0.0 3.0 0.00 0.01 0.01 85 1006.8
20260506171503 54 271 1.0 4.0 0.00 0.02 0.02 86 1017.4
20260506171047 53 0 0.0 4.0 0.00 0.01 0.01 85 1006.8
20260506171003 54 271 0.0 4.0 0.00 0.02 0.02 86 1017.4
20260506170546 53 0 0.0 4.0 0.00 0.01 0.01 85 1006.8
20260506170503 54 273 1.0 4.0 0.00 0.02 0.02 86 1017.4
20260506170218 54 272 1.0 4.0 0.00 0.02 0.02 86 1017.3
20260506170108 53 0 0.0 4.0 0.00 0.01 0.01 85 1006.9
20260506165717 54 270 1.0 4.0 0.00 0.02 0.02 86 1017.3
20260506165546 53 0 0.0 4.0 0.00 0.17 0.01 85 1006.8
20260506165046 54 0 0.0 4.0 0.00 0.17 0.01 85 1006.8
20260506165003 54 265 1.0 7.0 0.00 0.02 0.02 86 1017.3
20260506164606 54 270 2.0 7.0 0.00 0.17 0.01 85 1006.7
20260506164503 54 265 2.0 7.0 0.00 0.02 0.02 86 1017.2
20260506164046 54 263 2.0 7.0 0.00 0.17 0.01 84 1006.7
20260506164003 54 266 3.0 9.0 0.00 0.02 0.02 85 1017.2
20260506163545 54 0 4.0 8.0 0.00 0.17 0.01 84 1006.6
20260506163503 54 266 4.0 9.0 0.00 0.02 0.02 84 1017.2
20260506163100 54 277 4.0 9.0 0.00 0.17 0.01 84 1006.6
20260506163003 55 268 3.0 9.0 0.00 0.02 0.02 84 1017.2
20260506162549 54 264 2.0 9.0 0.00 0.17 0.01 84 1006.5
20260506162503 55 267 3.0 9.0 0.00 0.07 0.02 84 1017.1
20260506162046 55 278 2.0 8.0 0.00 0.17 0.01 84 1006.6
20260506162003 55 268 2.0 9.0 0.01 0.08 0.02 84 1017.2
20260506161554 55 0 0.0 9.0 0.00 0.17 0.01 84 1006.5
20260506161503 55 276 2.0 9.0 0.01 0.08 0.02 84 1017.1
20260506161217 56 274 2.0 9.0 0.01 0.09 0.02 84 1017.0
20260506161046 55 275 2.0 9.0 0.00 0.17 0.01 83 1006.5
20260506160547 55 298 1.0 9.0 0.00 0.17 0.01 84 1006.4
20260506160503 56 266 3.0 9.0 0.01 0.12 0.02 85 1016.9
20260506160059 56 260 2.0 9.0 0.00 0.17 0.01 84 1006.5
20260506160003 56 268 3.0 9.0 0.01 0.17 0.02 84 1017.0
20260506155551 56 288 2.0 8.0 0.00 0.40 0.01 84 1006.5
20260506155503 56 267 2.0 8.0 0.01 0.28 0.02 85 1017.0
20260506155047 56 269 2.0 7.0 0.00 0.40 0.01 84 1006.4
20260506155003 57 254 2.0 7.0 0.01 0.32 0.02 85 1017.0
20260506154716 57 237 2.0 7.0 0.01 0.35 0.02 85 1016.9
20260506154557 56 298 1.0 7.0 0.00 0.40 0.01 85 1006.5
20260506154048 56 201 1.0 6.0 0.00 0.40 0.01 85 1006.4
20260506154003 56 249 1.0 9.0 0.01 0.36 0.02 86 1016.9
20260506153551 56 0 0.0 9.0 0.00 0.40 0.01 86 1006.4
20260506153503 56 262 2.0 9.0 0.01 0.36 0.02 86 1016.8
20260506153052 55 255 2.0 9.0 0.00 0.40 0.01 85 1006.4
20260506153003 56 262 3.0 9.0 0.01 0.36 0.02 86 1016.9
20260506152546 55 263 4.0 9.0 0.00 0.40 0.01 86 1006.4
20260506152503 56 263 3.0 9.0 0.01 0.36 0.02 86 1016.9
20260506152048 55 266 3.0 7.0 0.00 0.40 0.00 86 1006.4
20260506152003 56 269 3.0 9.0 0.00 0.35 0.01 87 1016.9
20260506151557 55 270 1.0 9.0 0.00 0.40 0.00 87 1006.5
20260506151503 56 273 2.0 9.0 0.00 0.35 0.01 87 1017.0
20260506151045 55 271 1.0 9.0 0.00 0.40 0.00 87 1006.5
20260506151003 55 268 3.0 9.0 0.00 0.36 0.01 87 1016.9
20260506150546 55 279 3.0 7.0 0.00 0.40 0.00 86 1006.4
20260506150503 55 266 3.0 7.0 0.00 0.38 0.01 86 1016.9
20260506150003 55 270 2.0 6.0 0.00 0.40 0.01 87 1016.8
20260506145546 55 0 1.0 6.0 0.00 0.44 0.00 86 1006.4
20260506145503 56 257 1.0 7.0 0.00 0.42 0.01 86 1016.9
20260506145046 55 98 1.0 5.0 0.00 0.44 0.00 86 1006.4
20260506145003 56 251 2.0 7.0 0.00 0.43 0.01 86 1016.9
20260506144718 56 251 2.0 7.0 0.00 0.45 0.01 86 1016.8
20260506144552 56 255 2.0 7.0 0.00 0.44 0.00 86 1006.3
20260506144045 56 250 2.0 7.0 0.00 0.44 0.00 86 1006.2
20260506144003 56 259 3.0 7.0 0.00 0.45 0.01 86 1016.7
20260506143549 56 269 3.0 7.0 0.00 0.44 0.00 85 1006.2
20260506143503 56 261 3.0 8.0 0.00 0.45 0.01 86 1016.8
20260506143054 56 270 3.0 7.0 0.00 0.44 0.00 85 1006.1
20260506143003 56 268 3.0 8.0 0.00 0.45 0.01 86 1016.7
20260506142547 56 278 2.0 8.0 0.00 0.44 0.00 86 1006.2
20260506142503 56 270 3.0 8.0 0.00 0.45 0.01 86 1016.6
20260506142047 56 263 2.0 8.0 0.00 0.44 0.00 86 1006.1
20260506142003 56 272 3.0 8.0 0.00 0.45 0.01 86 1016.6
20260506141552 56 228 2.0 7.0 0.00 0.44 0.00 85 1006.1
20260506141503 56 282 2.0 7.0 0.00 0.45 0.01 86 1016.7
20260506141046 56 0 2.0 7.0 0.00 0.44 0.00 85 1006.1
20260506141003 56 288 2.0 7.0 0.00 0.45 0.01 85 1016.7
20260506140547 56 303 1.0 9.0 0.00 0.44 0.00 84 1006.1
20260506140503 57 275 3.0 10.0 0.00 0.45 0.01 84 1016.5
20260506140052 56 0 3.0 10.0 0.00 0.44 0.00 82 1006.1
20260506140003 57 265 4.0 10.0 0.00 0.45 0.01 82 1016.7
20260506135546 57 244 3.0 10.0 0.00 0.44 0.00 80 1006.1
20260506135503 58 266 4.0 10.0 0.00 0.45 0.01 81 1016.6
20260506135045 58 260 3.0 10.0 0.00 0.44 0.00 79 1006.1
20260506135003 58 258 4.0 10.0 0.00 0.45 0.01 79 1016.6
20260506134552 58 248 4.0 10.0 0.00 0.44 0.00 78 1005.9
20260506134503 58 249 4.0 10.0 0.00 0.45 0.01 79 1016.5
20260506134048 58 259 4.0 10.0 0.00 0.44 0.00 78 1006.0
20260506134003 58 253 4.0 10.0 0.00 0.45 0.01 79 1016.5
20260506133546 57 249 4.0 8.0 0.00 0.44 0.00 79 1006.0
20260506133503 58 255 3.0 9.0 0.00 0.45 0.01 80 1016.5
20260506133216 58 249 2.0 9.0 0.00 0.45 0.01 82 1016.4
20260506133107 57 275 2.0 8.0 0.00 0.44 0.00 81 1005.9
20260506132545 57 0 1.0 9.0 0.00 0.44 0.00 84 1006.0
20260506132503 57 248 3.0 9.0 0.00 0.45 0.01 84 1016.4
20260506132046 56 269 3.0 9.0 0.00 0.44 0.00 82 1005.9
20260506132003 57 251 4.0 12.0 0.00 0.45 0.01 82 1016.5
20260506131606 56 245 4.0 11.0 0.00 0.44 0.00 81 1005.9
20260506131503 57 256 5.0 12.0 0.00 0.45 0.01 81 1016.5
20260506131216 57 259 5.0 12.0 0.00 0.45 0.01 81 1016.5
20260506131048 57 247 4.0 12.0 0.00 0.44 0.00 81 1005.9
20260506130548 58 267 6.0 12.0 0.00 0.44 0.00 79 1005.8
20260506130503 58 242 4.0 12.0 0.00 0.45 0.01 79 1016.4
20260506130049 58 258 2.0 10.0 0.00 0.44 0.00 79 1005.8
20260506130003 58 220 3.0 11.0 0.00 0.45 0.01 81 1016.4
20260506125717 58 232 4.0 11.0 0.00 0.45 0.01 81 1016.3
20260506125547 58 209 3.0 11.0 0.00 0.45 0.00 80 1005.8
20260506125048 57 259 4.0 11.0 0.00 0.45 0.00 82 1005.8
20260506125003 57 250 4.0 11.0 0.00 0.45 0.01 83 1016.3
20260506124555 57 257 5.0 10.0 0.00 0.45 0.00 82 1005.8
20260506124503 57 256 4.0 12.0 0.00 0.45 0.01 82 1016.4
20260506124047 56 267 3.0 12.0 0.00 0.45 0.00 83 1005.9
20260506124003 57 259 4.0 12.0 0.00 0.45 0.01 83 1016.4
20260506123547 57 0 4.0 12.0 0.00 0.45 0.00 80 1005.8
20260506123503 57 256 5.0 12.0 0.00 0.45 0.01 80 1016.5
20260506123055 58 259 5.0 12.0 0.00 0.45 0.00 77 1005.8
20260506123003 59 256 3.0 12.0 0.00 0.45 0.01 76 1016.4
20260506122546 58 217 1.0 10.0 0.00 0.45 0.00 75 1005.7
20260506122503 59 248 2.0 11.0 0.00 0.46 0.01 75 1016.3
20260506122047 58 256 1.0 11.0 0.00 0.45 0.00 75 1005.8
20260506122003 59 205 4.0 11.0 0.00 0.46 0.01 75 1016.4
20260506121556 58 208 5.0 11.0 0.00 0.45 0.00 75 1005.8
20260506121503 59 197 5.0 12.0 0.00 0.46 0.01 76 1016.3
20260506121046 58 188 5.0 11.0 0.00 0.45 0.00 77 1005.7
20260506121003 58 200 5.0 12.0 0.00 0.46 0.01 77 1016.3
20260506120546 58 194 4.0 12.0 0.00 0.45 0.00 77 1005.7
20260506120503 58 199 5.0 12.0 0.00 0.46 0.01 77 1016.3
20260506120218 58 198 5.0 12.0 0.00 0.46 0.01 77 1016.3
20260506115717 58 196 4.0 11.0 0.00 0.46 0.01 78 1016.2
20260506115546 57 191 4.0 11.0 0.00 0.48 0.00 77 1005.6
20260506115218 58 197 4.0 9.0 0.00 0.46 0.01 77 1016.1
20260506115045 57 196 4.0 9.0 0.00 0.48 0.00 77 1005.7
20260506114555 57 199 3.0 8.0 0.00 0.48 0.00 76 1005.6
20260506114503 58 199 3.0 8.0 0.00 0.47 0.01 75 1016.2
20260506114049 58 208 2.0 7.0 0.00 0.48 0.00 75 1005.7
20260506114003 58 200 3.0 8.0 0.00 0.47 0.01 75 1016.3
20260506113547 58 181 2.0 7.0 0.00 0.48 0.00 74 1005.7
20260506113503 58 205 3.0 8.0 0.00 0.47 0.01 75 1016.2
20260506113218 58 199 4.0 8.0 0.00 0.47 0.01 74 1016.2
20260506113053 58 205 3.0 8.0 0.00 0.48 0.00 73 1005.6
20260506112549 58 185 4.0 8.0 0.00 0.48 0.00 74 1005.6
20260506112503 58 204 3.0 8.0 0.00 0.47 0.01 75 1016.1
20260506112046 57 0 2.0 7.0 0.00 0.48 0.00 75 1005.7
20260506112003 58 200 3.0 7.0 0.00 0.48 0.01 76 1016.1
20260506111553 57 227 3.0 7.0 0.00 0.48 0.00 76 1005.7
20260506111503 58 192 3.0 7.0 0.00 0.48 0.01 76 1016.2
20260506111046 57 171 3.0 7.0 0.00 0.48 0.00 77 1005.6
20260506111003 57 198 2.0 7.0 0.00 0.48 0.01 78 1016.1
20260506110547 57 192 1.0 7.0 0.00 0.48 0.00 78 1005.6
20260506110503 57 226 1.0 7.0 0.00 0.48 0.01 78 1016.2
20260506110104 57 0 1.0 7.0 0.00 0.48 0.00 78 1005.6
20260506110003 57 258 2.0 7.0 0.00 0.48 0.01 78 1016.2
20260506105547 57 271 1.0 7.0 0.00 0.48 0.00 79 1005.7
20260506105503 57 272 2.0 7.0 0.00 0.48 0.01 78 1016.2
20260506105047 57 272 1.0 7.0 0.00 0.48 0.00 79 1005.7
20260506105003 57 272 2.0 7.0 0.00 0.48 0.01 79 1016.2
20260506104603 57 272 2.0 7.0 0.00 0.48 0.00 79 1005.6
20260506104503 57 276 2.0 7.0 0.00 0.48 0.01 80 1016.2
20260506104045 57 286 1.0 7.0 0.00 0.48 0.00 79 1005.6
20260506104003 57 269 2.0 7.0 0.00 0.48 0.01 80 1016.2
20260506103545 57 259 2.0 7.0 0.00 0.48 0.00 78 1005.7
20260506103503 58 260 2.0 7.0 0.00 0.48 0.01 78 1016.2
20260506103052 57 255 1.0 6.0 0.00 0.48 0.00 76 1005.6
20260506103003 58 256 2.0 7.0 0.00 0.48 0.01 77 1016.1
20260506102549 57 252 2.0 7.0 0.00 0.48 0.00 76 1005.5
20260506102503 58 250 2.0 7.0 0.00 0.48 0.01 76 1016.0
20260506102049 57 252 2.0 7.0 0.00 0.48 0.00 75 1005.5
20260506102003 58 255 3.0 7.0 0.00 0.48 0.01 76 1016.0
20260506101554 57 256 3.0 6.0 0.00 0.48 0.00 76 1005.4
20260506101503 58 254 3.0 7.0 0.00 0.48 0.01 76 1015.9
20260506101217 58 247 3.0 6.0 0.00 0.48 0.01 76 1015.9
20260506101047 57 252 2.0 7.0 0.00 0.48 0.00 76 1005.2
20260506100547 57 244 3.0 7.0 0.00 0.48 0.00 76 1005.3
20260506100503 57 253 3.0 9.0 0.00 0.48 0.01 76 1015.8
20260506100217 57 255 3.0 9.0 0.00 0.48 0.01 76 1015.8
20260506095548 57 251 3.0 9.0 0.00 0.48 0.00 77 1005.2
20260506095503 57 253 3.0 7.0 0.00 0.48 0.01 77 1015.8
20260506095212 56 236 2.0 9.0 0.00 0.48 0.00 78 1005.2
20260506095003 57 256 3.0 9.0 0.00 0.48 0.01 79 1015.7
20260506094556 56 258 3.0 9.0 0.00 0.48 0.00 79 1005.2
20260506094503 57 263 4.0 9.0 0.00 0.48 0.01 79 1015.7
20260506094048 57 250 4.0 8.0 0.00 0.48 0.00 79 1005.2
20260506094003 57 260 4.0 8.0 0.00 0.48 0.01 80 1015.7
20260506093541 56 261 2.0 8.0 0.00 0.48 0.00 80 1005.2
20260506093503 57 243 3.0 8.0 0.00 0.48 0.01 80 1015.7
20260506093051 56 231 2.0 6.0 0.00 0.48 0.00 81 1005.3
20260506093003 57 234 2.0 6.0 0.00 0.48 0.01 81 1015.8
20260506092718 57 231 2.0 6.0 0.00 0.48 0.01 80 1015.8
20260506092544 56 0 1.0 6.0 0.00 0.48 0.00 80 1005.3
20260506092041 56 267 0.0 8.0 0.00 0.48 0.00 80 1005.1
20260506092003 57 264 2.0 10.0 0.00 0.48 0.01 81 1015.7
20260506091549 56 269 3.0 10.0 0.00 0.48 0.00 79 1005.1
20260506091503 56 261 4.0 10.0 0.00 0.48 0.01 80 1015.6
20260506091044 56 264 3.0 10.0 0.00 0.48 0.00 79 1005.0
20260506091003 56 256 4.0 10.0 0.00 0.48 0.01 80 1015.6
20260506090718 56 254 4.0 10.0 0.00 0.48 0.01 79 1015.6
20260506090543 56 250 4.0 9.0 0.00 0.48 0.00 79 1005.1
20260506090059 56 244 2.0 9.0 0.00 0.48 0.00 79 1005.1
20260506090003 56 253 3.0 9.0 0.00 0.48 0.01 79 1015.6
20260506085545 56 267 2.0 7.0 0.00 0.48 0.00 79 1005.1
20260506085503 57 236 3.0 9.0 0.00 0.48 0.01 79 1015.7
20260506085044 56 250 2.0 9.0 0.00 0.48 0.00 79 1005.1
20260506085003 56 239 3.0 9.0 0.00 0.48 0.01 79 1015.6
20260506084617 56 211 3.0 9.0 0.00 0.48 0.00 79 1005.1
20260506084503 56 242 3.0 10.0 0.00 0.48 0.01 80 1015.6
20260506084045 56 227 2.0 7.0 0.00 0.48 0.00 79 1005.0
20260506084003 56 221 2.0 10.0 0.00 0.48 0.01 79 1015.6
20260506083545 55 225 0.0 10.0 0.00 0.48 0.00 80 1005.0
20260506083503 56 204 3.0 10.0 0.00 0.48 0.01 81 1015.6
20260506083051 55 261 2.0 10.0 0.00 0.48 0.00 80 1005.0
20260506083003 56 215 3.0 10.0 0.00 0.48 0.01 81 1015.5
20260506082544 55 218 1.0 9.0 0.00 0.48 0.00 81 1005.0
20260506082503 55 215 3.0 8.0 0.00 0.49 0.01 82 1015.6
20260506082044 55 211 3.0 10.0 0.00 0.48 0.00 82 1005.1
20260506082003 55 198 4.0 11.0 0.00 0.49 0.01 82 1015.6
20260506081558 55 201 4.0 10.0 0.00 0.48 0.00 81 1005.1
20260506081503 55 199 3.0 11.0 0.00 0.49 0.01 82 1015.6
20260506081216 55 204 3.0 11.0 0.00 0.49 0.01 82 1015.6
20260506081044 55 209 3.0 11.0 0.00 0.48 0.00 82 1005.1
20260506080544 54 204 4.0 11.0 0.00 0.48 0.00 81 1005.1
20260506080503 55 198 5.0 11.0 0.00 0.49 0.01 82 1015.5
20260506073503 56 199 5.0 12.0 0.00 0.50 0.01 83 1015.5
20260506073053 55 246 4.0 12.0 0.00 0.49 0.00 83 1005.0
20260506073003 56 205 4.0 12.0 0.00 0.50 0.01 83 1015.5
20260506072545 55 225 3.0 11.0 0.00 0.49 0.00 84 1005.0
20260506072503 56 205 5.0 11.0 0.00 0.50 0.01 85 1015.5
20260506072218 56 198 5.0 11.0 0.00 0.50 0.01 85 1015.6
20260506072045 55 246 5.0 11.0 0.00 0.49 0.00 84 1005.0
20260506071558 55 197 5.0 10.0 0.00 0.49 0.00 85 1004.9
20260506071503 55 188 5.0 10.0 0.00 0.50 0.01 86 1015.5
20260506071045 55 194 5.0 10.0 0.00 0.49 0.00 85 1005.0
20260506071003 55 191 5.0 10.0 0.00 0.50 0.01 86 1015.3
20260506070544 54 195 3.0 8.0 0.00 0.49 0.00 86 1004.9
20260506070503 55 194 4.0 9.0 0.00 0.50 0.01 87 1015.4
20260506062503 52 193 7.0 15.0 0.00 0.50 0.01 89 1015.3
20260506062045 52 223 6.0 15.0 0.00 0.49 0.00 89 1004.8
20260506062003 52 196 7.0 15.0 0.00 0.50 0.01 90 1015.4
20260506061717 52 198 6.0 15.0 0.00 0.50 0.01 90 1015.4
20260506061555 51 198 7.0 15.0 0.00 0.49 0.00 89 1004.9
20260506061041 51 183 5.0 12.0 0.00 0.49 0.00 90 1004.9
20260506061003 52 199 5.0 14.0 0.00 0.50 0.01 90 1015.5
20260506060717 52 197 5.0 14.0 0.00 0.50 0.01 91 1015.6
20260506060544 51 202 4.0 14.0 0.00 0.49 0.00 90 1004.9
20260506051044 50 194 3.0 8.0 0.00 0.49 0.00 92 1004.7
20260506051003 51 200 3.0 8.0 0.00 0.50 0.01 92 1015.3
20260506050544 50 234 3.0 8.0 0.00 0.49 0.00 92 1004.8
20260506050503 51 197 3.0 8.0 0.00 0.50 0.01 92 1015.3
20260506045043 50 209 3.0 7.0 0.00 0.49 0.00 92 1004.6
20260506045003 50 206 3.0 7.0 0.00 0.50 0.01 92 1015.1
20260506044716 50 206 3.0 7.0 0.00 0.50 0.01 92 1015.2
20260506044553 50 206 2.0 6.0 0.00 0.49 0.00 92 1004.6
20260506044045 50 200 2.0 6.0 0.00 0.49 0.00 92 1004.6
20260506044004 50 205 1.0 6.0 0.00 0.50 0.01 92 1015.1
20260506043544 50 0 0.0 6.0 0.00 0.49 0.00 92 1004.6
20260506043503 50 201 1.0 6.0 0.00 0.50 0.01 92 1015.1
20260506043052 50 0 1.0 6.0 0.00 0.49 0.00 92 1004.6
20260506043003 50 199 2.0 6.0 0.00 0.50 0.01 92 1015.2
20260506042545 50 0 1.0 6.0 0.00 0.49 0.00 92 1004.7
20260506042503 50 200 2.0 8.0 0.00 0.50 0.01 92 1015.3
20260506042217 50 199 2.0 8.0 0.00 0.50 0.01 92 1015.2
20260506042047 50 0 1.0 6.0 0.00 0.49 0.00 92 1004.7
20260506041604 50 200 2.0 8.0 0.00 0.49 0.00 92 1004.7
20260506041503 50 194 2.0 8.0 0.00 0.50 0.01 92 1015.2
20260506041044 50 191 2.0 8.0 0.00 0.49 0.00 92 1004.7
20260506041003 50 200 3.0 8.0 0.00 0.50 0.01 93 1015.2
20260506040545 50 209 2.0 7.0 0.00 0.49 0.00 92 1004.8
20260506040503 50 205 2.0 7.0 0.00 0.50 0.01 93 1015.2
20260506040052 50 198 1.0 7.0 0.00 0.49 0.00 92 1004.8
20260506040003 50 206 2.0 7.0 0.00 0.50 0.01 93 1015.3
20260506035544 50 200 2.0 7.0 0.00 0.49 0.00 92 1004.8
20260506035503 50 204 2.0 7.0 0.00 0.50 0.01 93 1015.4
20260506035044 50 202 2.0 7.0 0.00 0.49 0.00 92 1004.9
20260506035003 50 205 2.0 7.0 0.00 0.50 0.01 93 1015.5
20260506034550 50 197 1.0 6.0 0.00 0.49 0.00 92 1005.0
20260506034503 50 207 2.0 6.0 0.00 0.50 0.01 93 1015.5
20260506034043 50 209 1.0 6.0 0.00 0.49 0.00 92 1005.1
20260506034003 50 205 1.0 7.0 0.00 0.50 0.01 93 1015.6
20260506033543 50 201 0.0 6.0 0.00 0.49 0.00 92 1005.1
20260506033503 50 207 2.0 7.0 0.00 0.50 0.01 93 1015.6
20260506033217 50 207 2.0 7.0 0.00 0.50 0.01 93 1015.7
20260506033052 49 0 3.0 7.0 0.00 0.49 0.00 92 1005.2
20260506032544 49 204 2.0 7.0 0.00 0.49 0.00 92 1005.1
20260506032503 50 206 3.0 7.0 0.00 0.50 0.01 93 1015.7
20260506032047 49 200 3.0 7.0 0.00 0.49 0.00 93 1005.2
20260506032003 50 210 3.0 7.0 0.00 0.50 0.01 93 1015.7
20260506031548 49 202 3.0 7.0 0.00 0.49 0.00 93 1005.2
20260506031503 49 209 3.0 7.0 0.00 0.50 0.01 93 1015.7
20260506031045 49 204 2.0 6.0 0.00 0.49 0.00 92 1005.2
20260506031003 49 208 3.0 6.0 0.00 0.50 0.01 93 1015.7
20260506030547 48 211 3.0 5.0 0.00 0.49 0.00 92 1005.2
20260506030503 49 217 2.0 6.0 0.00 0.50 0.01 93 1015.7
20260506030054 48 218 1.0 6.0 0.00 0.49 0.00 92 1005.2
20260506030003 49 226 2.0 6.0 0.00 0.50 0.01 92 1015.7
20260506025717 49 227 1.0 6.0 0.00 0.50 0.01 93 1015.7
20260506025544 48 234 0.0 6.0 0.00 0.49 0.00 92 1005.2
20260506025047 48 221 0.0 4.0 0.00 0.49 0.00 92 1005.2
20260506025003 49 218 1.0 4.0 0.00 0.50 0.01 92 1015.8
20260506024552 48 220 1.0 4.0 0.00 0.49 0.00 92 1005.3
20260506024503 49 217 1.0 6.0 0.00 0.50 0.01 92 1015.8
20260506024044 49 216 1.0 4.0 0.00 0.49 0.00 92 1005.3
20260506024003 49 215 2.0 6.0 0.00 0.50 0.01 92 1015.9
20260506023545 49 219 1.0 6.0 0.00 0.49 0.00 92 1005.4
20260506023503 49 212 2.0 6.0 0.00 0.50 0.01 92 1015.9
20260506023103 49 209 1.0 6.0 0.00 0.49 0.00 92 1005.3
20260506023003 49 214 2.0 6.0 0.00 0.50 0.01 92 1015.9
20260506022545 49 211 1.0 6.0 0.00 0.49 0.00 92 1005.4
20260506022503 49 219 2.0 6.0 0.00 0.50 0.01 92 1015.8
20260506022045 49 222 0.0 6.0 0.00 0.49 0.00 92 1005.4
20260506022003 49 218 2.0 6.0 0.00 0.50 0.01 92 1016.0
20260506021610 49 220 2.0 6.0 0.00 0.49 0.00 92 1005.4
20260506021503 49 212 3.0 6.0 0.00 0.50 0.01 92 1015.9
20260506021216 49 207 3.0 6.0 0.00 0.50 0.01 92 1015.9
20260506021049 49 209 2.0 5.0 0.00 0.49 0.00 92 1005.4
20260506020717 49 204 2.0 5.0 0.00 0.50 0.01 92 1016.0
20260506020544 49 205 2.0 5.0 0.00 0.49 0.00 92 1005.4
20260506020050 49 202 2.0 4.0 0.00 0.49 0.00 92 1005.3
20260506020003 50 202 2.0 5.0 0.00 0.50 0.01 92 1015.8
20260506015544 49 202 2.0 5.0 0.00 0.49 0.00 92 1005.2
20260506015503 50 201 1.0 5.0 0.00 0.50 0.01 92 1015.8
20260506015049 49 201 0.0 5.0 0.00 0.49 0.00 92 1005.3
20260506015003 50 200 1.0 5.0 0.00 0.50 0.01 92 1015.8
20260506014717 50 199 2.0 5.0 0.01 0.50 0.01 92 1015.9
20260506014551 49 201 1.0 5.0 0.00 0.49 0.00 92 1005.3
20260506014047 49 199 2.0 4.0 0.00 0.49 0.00 92 1005.4
20260506014003 50 199 2.0 5.0 0.01 0.50 0.01 92 1015.9
20260506013544 50 199 1.0 4.0 0.00 0.49 0.00 92 1005.4
20260506013503 50 199 1.0 5.0 0.01 0.50 0.01 92 1015.8
20260506013107 50 199 1.0 5.0 0.00 0.49 0.00 92 1005.3
20260506013003 50 199 2.0 5.0 0.01 0.50 0.01 92 1015.9
20260506012544 50 199 2.0 5.0 0.00 0.49 0.00 92 1005.5
20260506012503 50 199 2.0 5.0 0.01 0.50 0.01 92 1016.0
20260506012047 50 199 1.0 5.0 0.00 0.49 0.00 92 1005.6
20260506012003 50 199 2.0 5.0 0.01 0.50 0.01 92 1016.1
20260506011612 50 199 2.0 5.0 0.00 0.49 0.00 92 1005.6
20260506011503 50 199 2.0 6.0 0.01 0.50 0.01 92 1016.1
20260506011045 50 199 1.0 5.0 0.00 0.49 0.00 92 1005.6
20260506011003 50 199 2.0 6.0 0.01 0.50 0.01 92 1016.2
20260506010717 51 199 2.0 5.0 0.01 0.50 0.01 92 1016.2
20260506010544 50 199 1.0 6.0 0.00 0.49 0.00 92 1005.7
20260506010056 50 199 2.0 6.0 0.00 0.49 0.00 92 1005.7
20260506010003 51 201 2.0 6.0 0.01 0.50 0.01 92 1016.2
20260506005717 51 202 1.0 6.0 0.01 0.50 0.01 92 1016.2
20260506005548 50 202 1.0 4.0 0.00 0.49 0.00 92 1005.6
20260506005044 50 0 0.0 3.0 0.00 0.49 0.00 92 1005.7
20260506005003 51 204 1.0 3.0 0.01 0.50 0.01 92 1016.2
20260506004717 51 204 1.0 4.0 0.00 0.49 0.00 92 1016.3
20260506004553 50 204 1.0 3.0 0.00 0.48 0.00 92 1005.8
20260506004218 51 204 1.0 4.0 0.00 0.49 0.00 92 1016.3
20260506004044 51 204 1.0 3.0 0.00 0.48 0.00 92 1005.7
20260506003544 51 204 0.0 4.0 0.00 0.48 0.00 92 1005.9
20260506003503 51 204 1.0 4.0 0.00 0.49 0.00 92 1016.4
20260506003056 51 204 1.0 4.0 0.00 0.48 0.00 92 1005.9
20260506003003 51 204 1.0 4.0 0.00 0.49 0.00 92 1016.5
20260506002543 51 204 0.0 3.0 0.00 0.48 0.00 92 1005.9
20260506002503 51 204 1.0 4.0 0.00 0.49 0.00 92 1016.5
20260506002041 51 204 0.0 4.0 0.00 0.48 0.00 92 1006.0
20260506002003 52 204 1.0 4.0 0.00 0.49 0.00 92 1016.6
20260506001556 51 204 0.0 4.0 0.00 0.48 0.00 92 1006.0
20260506001503 52 204 1.0 4.0 0.00 0.49 0.00 92 1016.6
20260506001045 51 204 1.0 4.0 0.00 0.48 0.00 92 1006.0
20260506001003 52 204 2.0 4.0 0.00 0.49 0.00 92 1016.6
20260506000546 51 204 1.0 4.0 0.00 0.48 0.00 92 1006.1
20260506000503 52 203 2.0 4.0 0.00 0.49 0.00 92 1016.5
20260506000056 51 204 1.0 4.0 0.00 0.48 0.00 92 1006.1
20260506000003 52 203 1.0 4.0 0.00 0.49 0.00 92 1016.6
20260505235548 51 0 0.0 3.0 0.00 0.48 0.00 92 1006.2
20260505235503 52 203 1.0 5.0 0.00 0.49 0.00 92 1016.7
20260505235044 51 0 0.0 4.0 0.00 0.48 0.00 92 1006.2
20260505235003 52 203 2.0 5.0 0.00 0.49 0.00 92 1016.7
20260505234552 52 203 2.0 5.0 0.00 0.48 0.00 92 1006.1
20260505234503 52 203 2.0 5.0 0.00 0.49 0.00 92 1016.7
20260505234217 52 204 2.0 5.0 0.00 0.49 0.00 92 1016.7
20260505234045 52 203 2.0 5.0 0.00 0.48 0.00 92 1006.1
20260505233544 52 204 1.0 4.0 0.00 0.48 0.00 92 1006.1
20260505233503 52 207 2.0 5.0 0.00 0.49 0.00 92 1016.7
20260505233217 52 208 2.0 4.0 0.00 0.49 0.00 92 1016.8
20260505233058 52 207 2.0 4.0 0.00 0.48 0.00 92 1006.1
20260505232544 52 208 2.0 4.0 0.00 0.48 0.00 92 1006.2
20260505232503 52 208 2.0 4.0 0.00 0.49 0.00 92 1016.8
20260505232048 52 208 1.0 4.0 0.00 0.48 0.00 91 1006.2
20260505232003 52 208 2.0 4.0 0.00 0.49 0.00 92 1016.8
20260505231612 52 0 1.0 4.0 0.00 0.48 0.00 92 1006.4
20260505231503 52 208 2.0 4.0 0.00 0.49 0.00 92 1016.8
20260505231044 52 208 1.0 3.0 0.00 0.48 0.00 92 1006.4
20260505231003 52 208 2.0 3.0 0.00 0.49 0.00 92 1016.9
20260505230718 52 208 2.0 3.0 0.00 0.49 0.00 92 1016.8
20260505230544 52 208 1.0 3.0 0.00 0.48 0.00 92 1006.2
20260505230053 52 208 1.0 3.0 0.00 0.48 0.00 92 1006.3
20260505230003 52 208 1.0 3.0 0.00 0.49 0.00 92 1016.8
20260505225545 52 208 0.0 2.0 0.00 0.48 0.00 92 1006.5
20260505225503 53 208 1.0 3.0 0.00 0.49 0.00 92 1017.0
20260505225045 52 208 0.0 3.0 0.00 0.48 0.00 91 1006.5
20260505225003 53 208 0.0 3.0 0.00 0.49 0.00 92 1017.0
20260505224554 52 0 0.0 3.0 0.00 0.48 0.00 91 1006.5
20260505224503 53 208 1.0 3.0 0.00 0.49 0.00 92 1017.0
20260505224217 53 208 1.0 3.0 0.00 0.49 0.00 92 1017.0
20260505224044 52 208 0.0 2.0 0.00 0.48 0.00 91 1006.5
20260505223543 52 0 0.0 2.0 0.00 0.48 0.00 91 1006.5
20260505223503 53 208 1.0 3.0 0.00 0.49 0.00 92 1017.1
20260505223058 53 208 0.0 4.0 0.00 0.48 0.00 91 1006.5
20260505223003 53 208 1.0 5.0 0.00 0.49 0.00 92 1016.9
20260505222547 53 0 0.0 4.0 0.00 0.48 0.00 91 1006.5
20260505222503 53 208 2.0 5.0 0.00 0.49 0.00 92 1016.9
20260505222044 53 208 2.0 5.0 0.00 0.48 0.00 91 1006.4
20260505222003 53 207 2.0 5.0 0.00 0.49 0.00 92 1017.0
20260505221553 53 207 2.0 5.0 0.00 0.48 0.00 91 1006.5
20260505221503 53 206 1.0 5.0 0.00 0.49 0.00 92 1016.9
20260505221047 53 0 1.0 4.0 0.00 0.48 0.00 91 1006.4
20260505221003 53 205 1.0 4.0 0.00 0.49 0.00 92 1016.9
20260505220547 53 0 1.0 4.0 0.00 0.48 0.00 91 1006.4
20260505220503 53 205 2.0 4.0 0.00 0.49 0.00 92 1016.9
20260505220058 53 205 1.0 3.0 0.00 0.48 0.00 91 1006.4
20260505220003 53 205 2.0 4.0 0.00 0.49 0.00 92 1016.9
20260505215547 53 205 1.0 4.0 0.00 0.48 0.48 91 1006.4
20260505215503 53 205 2.0 4.0 0.00 0.49 0.49 92 1016.9
20260505215047 53 205 1.0 4.0 0.00 0.48 0.48 91 1006.4
20260505215003 53 205 2.0 4.0 0.00 0.49 0.49 92 1016.8
20260505214559 53 205 2.0 4.0 0.00 0.48 0.48 91 1006.4
20260505214503 53 205 2.0 4.0 0.00 0.49 0.49 92 1016.8
20260505214047 53 205 1.0 4.0 0.00 0.48 0.48 91 1006.2
20260505214003 54 205 1.0 3.0 0.00 0.49 0.49 92 1016.9
20260505213545 53 205 0.0 4.0 0.00 0.48 0.48 91 1006.3
20260505213503 54 205 1.0 4.0 0.00 0.49 0.49 92 1016.8
20260505213049 53 205 2.0 4.0 0.00 0.48 0.48 91 1006.4
20260505213003 54 205 2.0 4.0 0.00 0.49 0.49 92 1016.9
20260505212717 54 205 2.0 4.0 0.00 0.49 0.49 92 1016.9
20260505212547 53 205 2.0 4.0 0.00 0.48 0.48 91 1006.4
20260505212046 53 205 1.0 4.0 0.00 0.48 0.48 91 1006.5
20260505212003 54 205 1.0 4.0 0.00 0.49 0.49 92 1017.0
20260505211554 53 205 0.0 4.0 0.00 0.48 0.48 91 1006.4
20260505211503 54 205 1.0 4.0 0.00 0.49 0.49 92 1017.0
20260505211216 54 205 2.0 4.0 0.00 0.49 0.49 92 1016.9
20260505211046 54 0 1.0 4.0 0.00 0.48 0.48 91 1006.4
20260505210546 53 205 2.0 4.0 0.00 0.48 0.48 91 1006.4
20260505210503 54 205 2.0 4.0 0.00 0.49 0.49 92 1016.9
20260505210216 54 205 2.0 4.0 0.00 0.49 0.49 92 1016.9
20260505210058 53 205 1.0 3.0 0.00 0.48 0.48 91 1006.5
20260505205547 53 205 1.0 3.0 0.00 0.48 0.48 91 1006.4
20260505205503 54 205 1.0 3.0 0.00 0.49 0.49 92 1016.9
20260505205216 54 205 2.0 3.0 0.00 0.49 0.49 92 1016.9
20260505205047 53 205 1.0 3.0 0.00 0.48 0.48 91 1006.3
20260505204717 54 205 1.0 3.0 0.00 0.49 0.49 92 1016.7
20260505204557 53 205 1.0 3.0 0.00 0.48 0.48 91 1006.4
20260505204046 53 205 0.0 1.0 0.00 0.48 0.48 91 1006.4
20260505204003 54 205 0.0 1.0 0.00 0.49 0.49 92 1017.0
20260505203547 53 0 0.0 1.0 0.00 0.48 0.48 91 1006.4
20260505203503 54 205 0.0 1.0 0.00 0.49 0.49 92 1017.0
20260505203114 53 0 0.0 0.0 0.00 0.48 0.48 91 1006.4
20260505203003 54 0 0.0 3.0 0.00 0.49 0.49 91 1016.9
20260505202547 53 0 0.0 2.0 0.00 0.48 0.48 91 1006.5
20260505202503 54 205 0.0 3.0 0.00 0.49 0.49 91 1017.0
20260505202047 53 0 0.0 3.0 0.00 0.48 0.48 91 1006.4
20260505202003 54 205 0.0 3.0 0.00 0.49 0.49 91 1016.9
20260505201601 53 205 0.0 3.0 0.00 0.48 0.48 91 1006.2
20260505201503 54 205 1.0 3.0 0.00 0.49 0.49 91 1016.9
20260505201047 53 0 1.0 3.0 0.00 0.48 0.48 91 1006.2
20260505201003 54 205 1.0 3.0 0.00 0.49 0.49 91 1016.8
20260505200547 53 0 0.0 3.0 0.00 0.48 0.48 90 1006.1
20260505200503 54 205 0.0 3.0 0.00 0.49 0.49 91 1016.6
20260505200058 54 0 0.0 2.0 0.00 0.48 0.48 91 1006.1
20260505200003 54 205 0.0 3.0 0.00 0.49 0.49 91 1016.6
20260505195717 54 205 0.0 3.0 0.00 0.49 0.49 91 1016.6
20260505195548 54 0 0.0 3.0 0.00 0.48 0.48 91 1006.1
20260505195045 54 0 0.0 3.0 0.00 0.48 0.48 90 1006.1
20260505195003 54 205 1.0 4.0 0.00 0.49 0.49 91 1016.7
20260505194717 54 205 1.0 4.0 0.00 0.49 0.49 91 1016.6
20260505194556 54 0 1.0 4.0 0.00 0.48 0.48 90 1006.1
20260505194045 54 0 0.0 5.0 0.00 0.48 0.48 91 1006.2
20260505194003 55 205 1.0 7.0 0.00 0.49 0.49 91 1016.7
20260505193546 54 205 1.0 7.0 0.00 0.48 0.48 91 1006.1
20260505193503 55 205 1.0 7.0 0.00 0.49 0.49 91 1016.7
20260505193054 54 204 0.0 7.0 0.00 0.48 0.48 91 1006.2
20260505193003 55 203 1.0 7.0 0.00 0.49 0.49 91 1016.7
20260505192717 55 203 2.0 7.0 0.00 0.49 0.49 91 1016.7
20260505192550 55 204 0.0 7.0 0.00 0.48 0.48 90 1006.2
20260505192048 55 203 3.0 5.0 0.00 0.48 0.48 90 1006.2
20260505192003 55 202 3.0 5.0 0.00 0.49 0.49 91 1016.7
20260505191605 55 203 2.0 5.0 0.00 0.48 0.48 91 1006.1
20260505191503 55 202 3.0 6.0 0.00 0.49 0.49 91 1016.6
20260505191047 55 202 2.0 5.0 0.00 0.48 0.48 91 1006.1
20260505191003 55 202 2.0 6.0 0.00 0.49 0.49 91 1016.5
20260505190546 55 202 2.0 6.0 0.00 0.48 0.48 90 1005.9
20260505190503 56 201 3.0 6.0 0.00 0.49 0.49 91 1016.4
20260505190220 56 198 3.0 6.0 0.00 0.49 0.49 91 1016.5
20260505190057 55 202 2.0 6.0 0.00 0.48 0.48 90 1005.9
20260505185716 56 195 3.0 6.0 0.00 0.49 0.49 91 1016.5
20260505185546 55 193 2.0 6.0 0.00 0.48 0.48 90 1006.0
20260505185045 55 193 3.0 6.0 0.00 0.48 0.48 90 1005.9
20260505185003 56 200 3.0 6.0 0.00 0.49 0.49 91 1016.5